Home   Weather   Fort Liard   Past weeks

Flag for Canada Past Weather in Fort Liard, Northwest Territories, Canada — Yesterday and Last 2 Weeks

Now
49 °F

Cool.


Feels Like: 46 °F
Forecast: 29 / 60 °F
Wind: 6 mph from North

Location: Lindberg Landing

Current Time: Apr 27, 2017 at 6:51:57 pm

Latest Report: Apr 27, 2017 at 6:00 pm


Visibility: N/A

Pressure: 29.93 "Hg

Humidity: 33%

Dew Point: 21 °F

Location of Fort LiardLocation

Past Weather in Fort Liard — Graph

°F

Fort Liard Temperature Yesterday

Maximum temperature yesterday: 60 °F (at 5:00 pm)
Minimum temperature yesterday: 28 °F (at 2:00 am)
Average temperature yesterday: 42 °F

High & Low Weather Summary for the Past Weeks

 TemperatureHumidityPressure
High60 °F (Apr 26, 5:00 pm)98% (Apr 15, 6:00 am)30.76 "Hg (Apr 15, 6:00 am)
Low-6 °F (Apr 18, 7:00 am)19% (Apr 26, 5:00 pm)29.61 "Hg (Apr 26, 7:00 pm)
Average29 °F56%30.17 "Hg
* Reported Apr 12 5:00 pm — Apr 27 5:00 pm, Fort Liard, Weather by CustomWeather, © 2017

Note: Actual official high and low records may vary slightly from our data, if they occured in-between our weather recording intervals... More about our weather records

Advertising

Fort Liard Weather History for the Previous 24 Hours

Scroll right to see more
 ConditionsComfort  
Time TempWeatherWind HumidityBarometerVisibility
5:00 pm
Thu, Apr 27
47 °FCool.6 mph34%29.93 "HgN/A
4:00 pm47 °FCool.7 mph35%29.92 "HgN/A
3:00 pm45 °FQuite cool.6 mph39%29.91 "HgN/A
2:00 pm44 °FQuite cool.6 mph41%29.90 "HgN/A
1:00 pm43 °FQuite cool.8 mph39%29.89 "HgN/A
12:00 pm43 °FQuite cool.5 mph44%29.88 "HgN/A
11:00 am40 °FQuite cool.6 mph47%29.86 "HgN/A
10:00 am38 °FChilly.5 mph58%29.84 "HgN/A
9:00 am35 °FChilly.3 mph66%29.82 "HgN/A
8:00 am36 °FChilly.6 mph64%29.79 "HgN/A
7:00 am36 °FChilly.2 mph66%29.75 "HgN/A
6:00 am32 °FChilly.1 mph81%29.72 "HgN/A
4:00 am33 °FChilly.No wind73%29.68 "HgN/A
3:00 am34 °FChilly.No wind71%29.67 "HgN/A
2:00 am34 °FChilly.No wind73%29.65 "HgN/A
1:00 am35 °FChilly.1 mph68%29.65 "HgN/A
12:00 am36 °FChilly.2 mph65%29.64 "HgN/A
11:00 pm
Wed, Apr 26
39 °FChilly.2 mph50%29.63 "HgN/A
10:00 pm40 °FQuite cool.1 mph54%29.62 "HgN/A
9:00 pm47 °FCool.No wind44%29.61 "HgN/A
8:00 pm59 °FRefreshingly cool.No wind19%29.61 "HgN/A
7:00 pm58 °FRefreshingly cool.2 mph22%29.61 "HgN/A
6:00 pm58 °FRefreshingly cool.2 mph23%29.61 "HgN/A
Weather by CustomWeather, © 2017

See weather overviewHow to use our weather pages